Location: *
(55.5817°S, 142.4781°W)
Time: 07:38:10
(UTC+00:00)

SL-16 R/B - Pass Details

Date: 29 April 2025
Orbit: 985 x 1006 km, 99.7° (Epoch: 24 May)

Event Time Altitude Azimuth Distance (km) Brightness Sun altitude
Rises 13:48:11 0° 162° (SSE) 3,779 6.0 -26.0°
Reaches altitude 10° 13:50:43 10° 159° (SSE) 2,822 5.3 -25.6°
Maximum altitude 13:57:04 68° 75° (ENE) 1,092 2.8 -24.7°
Drops below altitude 10° 14:03:19 10° 352° (N) 2,782 4.7 -23.9°
Sets 14:05:48 0° 349° (N) 3,721 5.4 -23.5°
